Погода в Садриддине Айни

Узбекистан     40°05′05″N   64°46′41″E
темп.,
°C
ветер,
м/с
пор.,
м/с
влажн.,
%
обл.,
%
осадки,
мм/ч
давл.,
гПа
погр.,
м
3 марта, ср
ср323:00+9ссв694794 0.0 1024245
02:00+8с6856100 0.0 1024215
05:00+5ссв696690 0.0 1024190
08:00+4с576818 0.0 1024160
11:00+11ссз22419 0.0 1023427
14:00+14з34320 0.0 10211237
17:00+14сз33310 0.0 10201456
20:00+11с45400 0.0 1020136
4 марта, чт
чт423:00+9св44460 0.0 102077
02:00+8всв23470 0.0 101831
05:00+8вюв34500 0.0 101728
08:00+10юв4546100 0.0 101878
11:00+14ю344292 1.3 1017517
14:00+18ююз8104167 0.9 10161580
17:00+15сз10124179 1.1 1018938
20:00+10ссз8105685 0.1 10241051
5 марта, пт
пт523:00+7с787184 0.5 1027847
02:00+5с576920 0.0 1030360
05:00+4ссв477310 0.0 1030209
08:00+4ссв69690 0.0 1030224
11:00+10в45480 0.0 1028955
14:00+13вюв34270 0.0 10241353
17:00+14вюв23230 0.0 10201003
20:00+12всв463733 0.0 1019139
6 марта, сб
сб623:00+11в694867 0.0 1016256
02:00+10св454899 0.0 1014113
05:00+10св484799 0.0 1011263
08:00+7ссв6874100 2.6 1011189
11:00+7ссв91185100 8.4 1012228
14:00+9св7985100 2.4 1011322
17:00+8ссв6787100 5.8 1012313
20:00+5с101388100 4.9 1016423
7 марта, вс
вс723:00+4сз81088100 6.7 1018470
02:00+4зсз4690100 1.1 1019325
05:00+3з3486100 1.4 1020321
08:00+4юз2375100 0.1 1021456
11:00+6ююз3466100 0.1 1020647
14:00+8ю445644 0.0 1018933
17:00+10ююв355024 0.0 10161066
20:00+9юв46640 0.0 1017175